Погода в Екатериновке

Россия / Краснодарский край     46°41′34″N   38°45′21″E
темп.,
°C
ветер,
м/с
пор.,
м/с
влажн.,
%
обл.,
%
осадки,
мм/ч
давл.,
гПа
погр.,
м
30 ноября, вт
вт3000:00+13ююз102091100 5.4 10001158
03:00+12ююз101690100 14.3 1000826
06:00+12юз11189093 6.2 10001235
09:00+10зюз714833 6.3 1003735
12:00+11зюз69741 0.0 1003778
15:00+11зюз347180 0.0 1001602
18:00+10всв3380100 0.0 997149
21:00+9в3694100 5.0 993242
1 декабря, ср
ср100:00+7сз9995100 11.8 993734
03:00+3с6997100 15.6 996428
06:00+3сз51095100 6.4 999758
09:00+3з6107220 6.5 1004676
12:00+4зюз7106786 0.0 10061139
15:00+5ююз51064100 0.0 10051200
18:00+4з71195100 2.3 1005918
21:00+4зюз6118043 3.4 1006574
2 декабря, чт
чт200:00+4з6117481 0.1 1008526
03:00+3з6108021 0.1 1011461
06:00+2з48826 0.0 1013288
09:00+2юз37835 0.0 1015302
12:00+6юз5106972 0.0 1016680
15:00+8ююз6116878 0.0 1015940
18:00+8ююз6157711 0.0 1015555
21:00+8юз816847 0.0 1015761
3 декабря, пт
пт300:00+8ююз7167697 0.0 1015660
03:00+7ююз61580100 0.0 1015609
06:00+7ююз51485100 0.0 1015492
09:00+7ю5148796 0.0 1016427
12:00+10ююз6127282 0.0 1015584
15:00+11ю61168100 0.0 1014524
18:00+9ююв613705 0.0 1014285
21:00+8ю614685 0.0 1014301
4 декабря, сб
сб400:00+7ю51376100 0.0 1014262
03:00+7ю51481100 0.0 1014272
06:00+8ю51378100 0.0 1013270
09:00+8ю4117899 0.0 1014229
12:00+11ю496765 0.0 1012264
15:00+12ююв476491 0.0 1011309
18:00+10юв51260100 0.0 1010244
21:00+9юв51358100 0.0 1008291